Moses Lake, WA

5:06 PM PDT on April 21, 2018 (GMT -0700)
Grant County International

Weather History for KMWH - May, 2013

Change the Weather History Date:

Friday, May 24, 2013

  Actual Average Record
Temperature  
Mean Temperature 50 °F 61 °F  
Max Temperature 60 °F 76 °F 91 °F (1985)
Min Temperature 40 °F 47 °F 36 °F (1984)
Degree Days  
Heating Degree Days 15 5  
Month to date heating degree days 117 182  
Since 1 July heating degree days 5225 5799  
Cooling Degree Days 0 1  
Month to date cooling degree days 50 14  
Year to date cooling degree days 50 15  
Moisture  
Dew Point 40 °F    
Average Humidity 65    
Maximum Humidity 86    
Minimum Humidity 44    
Precipitation  
Precipitation 0.08 in 0.02 in 0.08 in (2013)
Month to date precipitation 0.20 0.46  
Year to date precipitation 1.58 3.88  
Sea Level Pressure  
Sea Level Pressure 29.97 in    
Wind  
Wind Speed 5 mph (South)    
Max Wind Speed 12 mph    
Max Gust Speed 14 mph    
Visibility 10 miles    
Events Rain    
T = Trace of Precipitation, MM = Missing Value Source: NWS Daily Summary

Daily Weather History Graph

Daily Weather History Graph

Search for Another Location

Airport or City:

Astronomy

May. 24, 2013 Rise Set
Actual Time 5:11 AM PDT 8:37 PM PDT
Civil Twilight 4:33 AM PDT 9:15 PM PDT
Nautical Twilight 3:43 AM PDT 10:05 PM PDT
Astronomical Twilight 2:38 AM PDT 11:11 PM PDT
Moon 8:23 PM PDT (5/24) 4:51 AM PDT (5/24)
Length of Visible Light 16h 42m
Length of Day
15h 26m
Full, 100% of the Moon is Illuminated
May 24
Full
May 24
Full
May 31
Last Quarter
Jun 8
New
Jun 16
First Quarter

Hourly Weather History & Observations

Time (PDT) Temp. Windchill Dew Point Humidity Pressure Visibility Wind Dir Wind Speed Gust Speed Precip Events Conditions
12:52 AM 45.0 °F 40.6 °F 36.0 °F 71% 29.95 in 10.0 mi NW 8.1 mph - N/A   Mostly Cloudy
1:52 AM 45.0 °F 42.6 °F 36.0 °F 71% 29.94 in 10.0 mi North 4.6 mph - N/A   Partly Cloudy
2:52 AM 42.1 °F 38.4 °F 36.0 °F 79% 29.94 in 10.0 mi North 5.8 mph - N/A   Clear
3:52 AM 42.1 °F 37.7 °F 35.1 °F 76% 29.93 in 10.0 mi North 6.9 mph - N/A   Clear
4:52 AM 41.0 °F 35.8 °F 34.0 °F 76% 29.94 in 10.0 mi North 8.1 mph - N/A   Clear
5:52 AM 42.1 °F 38.4 °F 35.1 °F 76% 29.94 in 10.0 mi NNE 5.8 mph - N/A   Overcast
6:52 AM 44.1 °F 41.5 °F 36.0 °F 73% 29.94 in 10.0 mi ENE 4.6 mph - N/A   Overcast
7:52 AM 46.9 °F - 39.0 °F 74% 29.95 in 10.0 mi SE 6.9 mph - N/A   Overcast
8:52 AM 46.0 °F 41.9 °F 39.9 °F 79% 29.97 in 10.0 mi South 8.1 mph - 0.00 in Rain Light Rain
9:52 AM 46.0 °F 43.1 °F 42.1 °F 86% 29.99 in 9.0 mi South 5.8 mph - 0.04 in Rain Light Rain
10:03 AM 46.4 °F 42.9 °F 42.8 °F 87% 29.97 in 7.0 mi SSW 6.9 mph - 0.01 in Rain Light Rain
10:52 AM 48.0 °F - 45.0 °F 89% 29.99 in 6.0 mi South 9.2 mph - 0.03 in Rain Light Rain
11:42 AM 48.2 °F - 44.6 °F 87% 29.98 in 10.0 mi South 10.4 mph - 0.01 in   Overcast
11:52 AM 50.0 °F - 46.0 °F 86% 30.00 in 10.0 mi SSE 9.2 mph - 0.01 in   Overcast
12:08 PM 50.0 °F - 44.6 °F 82% 29.98 in 10.0 mi South 10.4 mph - N/A   Overcast
12:52 PM 50.0 °F - 44.1 °F 80% 30.00 in 10.0 mi SSE 3.5 mph - N/A   Overcast
1:52 PM 53.1 °F - 44.1 °F 71% 29.99 in 10.0 mi SSW 4.6 mph - N/A   Mostly Cloudy
2:52 PM 55.0 °F - 42.1 °F 62% 29.99 in 10.0 mi West 8.1 mph - N/A   Mostly Cloudy
3:52 PM 57.0 °F - 41.0 °F 55% 29.99 in 10.0 mi Variable 4.6 mph - N/A   Clear
4:52 PM 55.9 °F - 41.0 °F 57% 29.99 in 10.0 mi Calm Calm - N/A   Scattered Clouds
5:52 PM 59.0 °F - 39.9 °F 49% 29.99 in 10.0 mi Calm Calm - N/A   Scattered Clouds
6:52 PM 59.0 °F - 37.9 °F 46% 29.99 in 10.0 mi WSW 3.5 mph - N/A   Clear
7:52 PM 57.0 °F - 39.0 °F 51% 29.99 in 10.0 mi Calm Calm - N/A   Clear
8:52 PM 55.9 °F - 39.9 °F 55% 29.99 in 10.0 mi South 4.6 mph - N/A   Clear
9:52 PM 51.1 °F - 39.9 °F 66% 30.00 in 10.0 mi ESE 3.5 mph - N/A   Clear
10:52 PM 48.0 °F - 41.0 °F 77% 30.00 in 10.0 mi SE 3.5 mph - N/A   Clear
11:52 PM 48.9 °F - 41.0 °F 74% 29.99 in 10.0 mi Calm Calm - N/A   Clear